Phnom Penh, Cambodia

8:09 AM +07 on March 27, 2017 (GMT +0700)
Pochentong International

Weather History for VDPP - October, 2012

Change the Weather History Date:

Friday, October 5, 2012

  Actual Average Record
Temperature  
Mean Temperature 82 °F -  
Max Temperature 89 °F 84 °F 93 °F (2016)
Min Temperature 75 °F 76 °F 73 °F (2005)
Cooling Degree Days 17    
Growing Degree Days 32 (Base 50)    
Moisture  
Dew Point 73 °F    
Average Humidity 72    
Maximum Humidity 89    
Minimum Humidity 55    
Precipitation  
Precipitation 0.00 in - - ()
Sea Level Pressure  
Sea Level Pressure 29.80 in    
Wind  
Wind Speed 4 mph ()    
Max Wind Speed 18 mph    
Max Gust Speed -    
Visibility 6.0 miles    
Events Thunderstorm    
Averages and records for this station are not official NWS values.
T = Trace of Precipitation, MM = Missing Value Source: Averaged Metar Reports

Daily Weather History Graph

Daily Weather History Graph

Search for Another Location

Airport or City:

Trip Planner

Search our weather history database for the weather conditions in past years. The results will help you decide how hot, cold, wet, or windy it might be!

Date:

Astronomy

Oct. 05, 2012 Rise Set
Actual Time 5:49 AM +07 5:48 PM +07
Civil Twilight 5:28 AM +07 6:09 PM +07
Nautical Twilight 5:03 AM +07 6:33 PM +07
Astronomical Twilight 4:39 AM +07 6:58 PM +07
Moon 9:32 PM +07 (10/5) 9:43 AM +07 (10/5)
Length of Visible Light 12h 40m
Length of Day
11h 58m
Waning Gibbous, 78% of the Moon is Illuminated
Oct 5
Waning Gibbous
Oct 8
Last Quarter
Oct 15
New
Oct 22
First Quarter
Oct 30
Full

Hourly Weather History & Observations

Time (+07) Temp. Heat Index Dew Point Humidity Pressure Visibility Wind Dir Wind Speed Gust Speed Precip Events Conditions
6:30 AM 80.6 °F 86.2 °F 75.2 °F 84% 29.80 in 6.2 mi ESE 1.2 mph - N/A   Partly Cloudy
7:00 AM 81 °F - 78 °F 88% 29.81 in 6 mi Calm Calm - -   Partly Cloudy
7:00 AM 82.4 °F 89.5 °F 75.2 °F 79% 29.83 in 6.2 mi West 4.6 mph - N/A   Partly Cloudy
7:30 AM 84.2 °F 92.3 °F 75.2 °F 74% 29.83 in 6.2 mi West 4.6 mph - N/A   Partly Cloudy
8:00 AM 84.2 °F 90.9 °F 73.4 °F 70% 29.83 in 6.2 mi SW 4.6 mph - N/A   Scattered Clouds
8:30 AM 86.0 °F 93.4 °F 73.4 °F 66% 29.83 in 6.2 mi WSW 4.6 mph - N/A   Scattered Clouds
9:00 AM 86.0 °F 95.1 °F 75.2 °F 70% 29.86 in 6.2 mi WSW 2.3 mph - N/A   Scattered Clouds
9:30 AM 87.8 °F 97.6 °F 75.2 °F 66% 29.86 in 6.2 mi WSW 6.9 mph - N/A   Scattered Clouds
10:00 AM 87.8 °F 95.6 °F 73.4 °F 62% 29.86 in 6.2 mi West 10.4 mph - N/A   Scattered Clouds
10:30 AM 87.8 °F 95.6 °F 73.4 °F 62% 29.86 in 6.2 mi WSW 4.6 mph - N/A   Scattered Clouds
11:00 AM 89.6 °F 99.8 °F 75.2 °F 62% 29.83 in 6.2 mi NNW 2.3 mph - N/A   Scattered Clouds
11:30 AM 89.6 °F 99.8 °F 75.2 °F 62% 29.83 in 6.2 mi North 12.7 mph - N/A   Scattered Clouds
12:00 PM 89.6 °F 98.2 °F 73.4 °F 59% 29.80 in 6.2 mi North 5.8 mph - N/A   Partly Cloudy
12:30 PM 89.6 °F 98.2 °F 73.4 °F 59% 29.77 in 6.2 mi North 3.5 mph - N/A   Partly Cloudy
1:00 PM 89.6 °F 98.2 °F 73.4 °F 59% 29.77 in 6.2 mi NNW 4.6 mph - N/A   Partly Cloudy
1:30 PM 89.6 °F 96.2 °F 71.6 °F 55% 29.74 in 6.2 mi NNE 5.8 mph - N/A   Partly Cloudy
2:00 PM 89.6 °F 96.2 °F 71.6 °F 55% 29.74 in 6.2 mi NNE 4.6 mph - N/A   Partly Cloudy
2:30 PM 89.6 °F 96.2 °F 71.6 °F 55% 29.71 in 6.2 mi ENE 3.5 mph - N/A   Partly Cloudy
3:00 PM 87.8 °F 95.6 °F 73.4 °F 62% 29.71 in 6.2 mi SSE 6.9 mph - N/A   Partly Cloudy
3:30 PM 87.8 °F 97.6 °F 75.2 °F 66% 29.71 in 6.2 mi ESE 6.9 mph - N/A   Partly Cloudy
4:00 PM 87.8 °F 97.6 °F 75.2 °F 66% 29.74 in 6.2 mi East 5.8 mph - N/A   Partly Cloudy
4:30 PM 80.6 °F 83.9 °F 69.8 °F 70% 29.77 in 5.0 mi West 18.4 mph - N/A Thunderstorm Thunderstorm
5:30 PM 77.0 °F - 69.8 °F 78% 29.77 in 5.6 mi SSW 12.7 mph - N/A Thunderstorm Thunderstorm
6:00 PM 75.2 °F - 71.6 °F 89% 29.80 in 5.6 mi WSW 6.9 mph - N/A Thunderstorm Thunderstorm
6:30 PM 77.0 °F - 71.6 °F 83% 29.80 in 5.6 mi WSW 6.9 mph - N/A Thunderstorm Thunderstorm
7:00 PM 77.0 °F - 71.6 °F 83% 29.80 in 5.6 mi SSW 4.6 mph - N/A   Scattered Clouds
7:30 PM 77.0 °F - 71.6 °F 83% 29.80 in 5.6 mi SSW 6.9 mph - N/A   Scattered Clouds
8:00 PM 77.0 °F - 71.6 °F 83% 29.83 in 5.6 mi SSW 5.8 mph - N/A   Scattered Clouds
9:00 PM 77.0 °F - 71.6 °F 83% 29.86 in 5.6 mi South 4.6 mph - N/A   Scattered Clouds
10:00 PM 77.0 °F - 73.4 °F 89% 29.86 in 5.6 mi SSW 5.8 mph - N/A   Scattered Clouds
11:00 PM 78.8 °F - 73.4 °F 83% 29.86 in 5.6 mi South 4.6 mph - N/A   Scattered Clouds
11:30 PM 78.8 °F - 73.4 °F 83% 29.86 in 5.6 mi South 2.3 mph - N/A   Scattered Clouds